Tracking 21611 objects as of 21-Oct-2020
HD Live streaming from Space Station
objects crossing your sky now

BEIDOU 3M17

Track BEIDOU 3M17 now!
BEIDOU 3M17 is classified as:


NORAD ID: 43706
Int'l Code: 2018-093A
Perigee: 21,502.4 km
Apogee: 21,567.8 km
Inclination: 54.6 °
Period: 773.2 minutes
Semi major axis: 27906 km
RCS: Unknown
Launch date: November 18, 2018
Source: People's Republic of China (PRC)
Launch site: Xichang Space Center, China (XSC)
aabbcc
Your satellite tracking list
Your tracking list is empty




NASA's NSSDC Master Catalog

Two Line Element Set (TLE):
1 43706U 18093A   20294.79388079 +.00000008 +00000-0 +00000-0 0  9997
2 43706 054.5903 252.6685 0011716 268.8299 182.6648 01.86231926013065
Source of the keplerian elements: AFSPC